Location: Spring Creek
(38.2870°N, 100.2160°W)
Time: 03:59:01
(UTC+00:00)

Cosmos 1709 Rocket - Pass Details

Date: 08 May 2021
Orbit: 948 x 1002 km, 82.9° (Epoch: 22 June)

Event Time Altitude Azimuth Distance (km) Brightness Sun altitude
Rises 04:07:17 0° 350° (N) 3,634 8.0 -24.3°
Reaches altitude 10° 04:09:48 10° 347° (NNW) 2,681 7.1 -24.7°
Maximum altitude 04:15:51 66° 267° (W) 1,028 4.1 -25.4°
Enters shadow 04:17:51 42° 202° (SSW) 1,315 4.4 -25.6°
